DW8234 Fruit Cove FL US current weather conditions

sailwx.info

Wind from 058

Air temperature 25.0° C
Dewpoint 15.9° C

Last reported at 2020-Oct-01 15:01 UTC.
Time now 2020-Oct-01 15:56 UTC

Location: N 30°07' W 081°38'.
View on Google Maps.

See reports from other nearby stations

  
Tides and Currents Weather Stations Pressure Air Temp Water Temp Dewpoint Dewpoint Depression Visibility Wind Speed Wind Dir Waves Ship Positions
date/time (UTC)wind fromknots sea level pressurealtimeterstation pressurevisibilityair tempwater tempwave heightnotes
2020-Oct-01 15:01 058 25.0
2020-Oct-01 14:46 274 0 gusting 3 25.0
2020-Oct-01 14:41 230 1 gusting 2 25.0
2020-Oct-01 14:26 24.4
2020-Oct-01 14:16 019 23.9
2020-Oct-01 14:11 254 0 gusting 1 23.9
2020-Oct-01 14:01 030 23.3
2020-Oct-01 13:56 226 23.3
2020-Oct-01 13:46 251 22.2
2020-Oct-01 13:41 251 21.7
2020-Oct-01 13:36 249 21.1
2020-Oct-01 13:31 249 20.6
2020-Oct-01 13:26 249 20.0
2020-Oct-01 13:21 249 18.9
2020-Oct-01 13:16 249 18.3
2020-Oct-01 13:11 249 17.8
2020-Oct-01 13:01 129 17.2
2020-Oct-01 12:46 129 16.1
2020-Oct-01 12:41 129 16.1
2020-Oct-01 12:21 129 15.0
2020-Oct-01 12:16 129 15.0
2020-Oct-01 12:11 129 15.0
2020-Oct-01 12:06 129 15.0
2020-Oct-01 11:51 129 15.0
2020-Oct-01 11:26 129 15.0
2020-Oct-01 11:21 129 15.0
2020-Oct-01 11:01 129 15.0
2020-Oct-01 10:56 129 15.0
2020-Oct-01 10:21 129 15.0
2020-Oct-01 10:16 129 15.0
2020-Oct-01 10:11 129 15.0
2020-Oct-01 10:06 129 15.0
2020-Oct-01 09:56 129 15.0
2020-Oct-01 09:46 129 15.0
2020-Oct-01 09:41 129 15.0
2020-Oct-01 09:31 129 15.6
2020-Oct-01 09:21 129 15.0
2020-Oct-01 09:11 129 15.0
2020-Oct-01 09:06 129 15.0
2020-Oct-01 09:01 129 15.0
2020-Oct-01 08:51 129 15.0
2020-Oct-01 08:46 129 15.0
2020-Oct-01 08:41 129 15.0
2020-Oct-01 08:36 129 15.0
2020-Oct-01 08:31 129 15.0
2020-Oct-01 08:11 129 15.0
2020-Oct-01 07:51 129 15.0
2020-Oct-01 07:41 129 15.0
2020-Oct-01 07:31 129 15.0
2020-Oct-01 07:16 129 15.0
2020-Oct-01 07:11 129 15.0
2020-Oct-01 07:06 129 15.0
2020-Oct-01 06:56 129 15.0
2020-Oct-01 06:46 129 15.0
2020-Oct-01 06:36 129 15.6
2020-Oct-01 06:26 129 15.6
2020-Oct-01 06:21 129 15.0
2020-Oct-01 06:16 129 15.0
2020-Oct-01 06:11 129 15.0
2020-Oct-01 06:01 129 15.0
2020-Oct-01 05:41 129 15.0
2020-Oct-01 05:36 129 15.0
2020-Oct-01 05:26 129 15.0
2020-Oct-01 05:21 129 15.0
2020-Oct-01 05:16 129 14.4
2020-Oct-01 05:06 129 15.0
2020-Oct-01 05:01 129 15.0
2020-Oct-01 04:56 129 15.0
2020-Oct-01 04:51 129 15.0
2020-Oct-01 04:21 129 15.0
2020-Oct-01 04:11 129 15.6
2020-Oct-01 04:06 129 15.6
2020-Oct-01 03:51 129 15.6
2020-Oct-01 03:36 129 15.6
2020-Oct-01 03:31 129 15.6
2020-Oct-01 03:16 129 16.1
2020-Oct-01 03:01 129 16.1
2020-Oct-01 02:31 129 16.7
2020-Oct-01 02:26 129 16.7
2020-Oct-01 02:16 129 16.7
2020-Oct-01 02:01 129 16.7
2020-Oct-01 01:56 129 16.7
2020-Oct-01 01:51 129 17.2
2020-Oct-01 01:46 129 17.2
2020-Oct-01 01:41 129 17.2
2020-Oct-01 01:36 129 17.2
2020-Oct-01 01:31 129 17.2
2020-Oct-01 01:21 129 17.2
2020-Oct-01 01:11 129 17.8
2020-Oct-01 01:06 129 17.8
2020-Oct-01 01:01 129 17.8
2020-Oct-01 00:56 129 17.8
2020-Oct-01 00:51 129 17.8
2020-Oct-01 00:46 129 18.3
2020-Oct-01 00:41 129 18.3
2020-Oct-01 00:36 129 18.3
2020-Oct-01 00:31 129 18.9
2020-Oct-01 00:21 129 18.9
2020-Oct-01 00:11 129 19.4
2020-Sep-30 23:56 129 19.4
2020-Sep-30 23:41 129 20.0
2020-Sep-30 23:36 129 20.0
2020-Sep-30 23:26 129 20.6
2020-Sep-30 23:21 289 0 gusting 1 21.1
2020-Sep-30 23:06 289 22.2
2020-Sep-30 23:01 289 22.2
2020-Sep-30 22:56 289 22.8
2020-Sep-30 22:51 289 23.3
2020-Sep-30 22:36 289 23.9
2020-Sep-30 22:31 289 23.9
2020-Sep-30 22:21 289 24.4
2020-Sep-30 22:06 291 25.6
2020-Sep-30 22:01 291 26.1
2020-Sep-30 21:56 291 26.7
2020-Sep-30 21:51 291 27.2
2020-Sep-30 21:36 300 27.2
2020-Sep-30 21:31 297 0 gusting 2 27.2
2020-Sep-30 21:26 297 27.2
2020-Sep-30 21:11 293 27.2
2020-Sep-30 21:06 293 0 gusting 1 27.2
2020-Sep-30 21:01 294 0 gusting 1 27.2
2020-Sep-30 20:51 241 27.2
2020-Sep-30 20:46 27.2
2020-Sep-30 20:26 283 2 gusting 2 26.1
2020-Sep-30 20:21 041 1 gusting 2 26.1
2020-Sep-30 20:06 274 2 gusting 2 26.1
2020-Sep-30 19:56 270 0 gusting 4 26.1
2020-Sep-30 19:51 274 1 gusting 3 26.1
2020-Sep-30 19:41 283 25.6
2020-Sep-30 19:31 242 2 gusting 3 25.6
2020-Sep-30 19:21 277 25.6
2020-Sep-30 19:16 236 2 gusting 2 25.6
2020-Sep-30 19:11 337 2 gusting 2 25.6
2020-Sep-30 19:06 219 0 gusting 2 25.6
2020-Sep-30 18:56 244 2 gusting 3 25.0
2020-Sep-30 18:41 243 2 gusting 3 25.0
2020-Sep-30 18:31 308 1 gusting 3 25.0
2020-Sep-30 18:01 331 1 gusting 2 24.4
2020-Sep-30 17:51 051 1 gusting 5 24.4
2020-Sep-30 17:46 302 0 gusting 5 23.9
2020-Sep-30 17:41 258 0 gusting 5 23.9
2020-Sep-30 17:26 238 1 gusting 2 23.9
2020-Sep-30 17:21 223 1 gusting 2 23.9
2020-Sep-30 16:56 315 2 gusting 5 23.3
2020-Sep-30 16:51 356 1 gusting 5 23.3
2020-Sep-30 16:36 306 3 gusting 5 23.3
2020-Sep-30 16:11 293 1 gusting 3 22.8
2020-Sep-30 16:06 232 1 gusting 2 22.8
2020-Sep-30 16:01 252 1 gusting 2 22.8
2020-Sep-30 15:56 002 2 gusting 6 22.8
2020-Sep-30 15:51 274 0 gusting 4 23.3
2020-Sep-30 15:46 346 0 gusting 4 22.8
2020-Sep-30 15:31 270 1 gusting 4 22.8
2020-Sep-30 15:21 257 22.2
2020-Sep-30 15:06 090 2 gusting 3 21.7
2020-Sep-30 15:01 263 1 gusting 2 21.7
2020-Sep-30 14:56 265 1 gusting 5 21.7
2020-Sep-30 14:51 284 0 gusting 4 21.7
2020-Sep-30 14:41 002 1 gusting 4 21.1
2020-Sep-30 14:36 304 0 gusting 4 21.1
2020-Sep-30 14:31 358 0 gusting 4 21.1
2020-Sep-30 14:26 351 0 gusting 4 21.1
2020-Sep-30 14:21 273 1 gusting 4 21.1
2020-Sep-30 14:11 303 2 gusting 4 20.6
2020-Sep-30 14:06 010 1 gusting 4 20.6
2020-Sep-30 14:01 301 2 gusting 4 20.0
2020-Sep-30 13:46 358 3 gusting 4 18.9
2020-Sep-30 13:41 332 18.9
2020-Sep-30 13:36 279 0 gusting 4 18.3
2020-Sep-30 13:31 052 0 gusting 4 17.8
2020-Sep-30 13:21 109 0 gusting 4 17.8
2020-Sep-30 13:16 103 17.8
2020-Sep-30 12:56 019 17.8
2020-Sep-30 12:51 021 0 gusting 7 17.8
2020-Sep-30 12:31 353 0 gusting 7 17.2
2020-Sep-30 12:21 242 1 gusting 6 16.7
2020-Sep-30 12:16 357 0 gusting 6 16.7
2020-Sep-30 12:06 032 0 gusting 2 16.7
2020-Sep-30 12:01 223 0 gusting 2 16.7
2020-Sep-30 11:56 328 1 gusting 6 16.7
2020-Sep-30 11:41 234 1 gusting 6 16.1
2020-Sep-30 11:36 344 0 gusting 6 16.1
2020-Sep-30 11:26 16.1
2020-Sep-30 11:11 326 0 gusting 6 16.1
2020-Sep-30 11:06 345 0 gusting 1 16.1
2020-Sep-30 11:01 289 16.1
2020-Sep-30 10:51 358 16.1
2020-Sep-30 10:46 004 0 gusting 5 16.1
2020-Sep-30 10:41 188 16.1
2020-Sep-30 10:36 002 0 gusting 3 16.1
2020-Sep-30 10:31 302 0 gusting 3 16.1
2020-Sep-30 10:26 358 16.1
2020-Sep-30 10:06 307 16.1
2020-Sep-30 10:01 203 16.1
2020-Sep-30 09:51 176 16.1
2020-Sep-30 09:46 224 2 gusting 4 16.7
2020-Sep-30 09:41 100 16.7
2020-Sep-30 09:36 248 0 gusting 3 16.7
2020-Sep-30 09:21 013 16.7
2020-Sep-30 09:06 234 1 gusting 2 16.7
2020-Sep-30 09:01 294 16.7
2020-Sep-30 08:56 104 16.7
2020-Sep-30 08:51 338 0 gusting 3 16.7
2020-Sep-30 08:36 241 16.7
2020-Sep-30 08:31 325 16.7
2020-Sep-30 08:21 028 0 gusting 3 16.7
2020-Sep-30 08:16 239 0 gusting 3 16.7
2020-Sep-30 08:11 316 0 gusting 2 16.7
2020-Sep-30 08:06 345 16.7
2020-Sep-30 08:01 235 16.7
2020-Sep-30 07:51 053 2 gusting 3 16.7
2020-Sep-30 07:46 204 1 gusting 3 16.7
2020-Sep-30 07:41 344 0 gusting 3 16.7
2020-Sep-30 07:31 182 16.7
2020-Sep-30 07:26 085 0 gusting 3 16.7
2020-Sep-30 07:21 038 0 gusting 3 16.7
2020-Sep-30 07:16 277 16.7
2020-Sep-30 07:11 327 16.7
2020-Sep-30 07:06 122 0 gusting 2 17.2
2020-Sep-30 07:01 308 17.2
2020-Sep-30 06:56 251 4 gusting 6 17.2
2020-Sep-30 06:46 240 0 gusting 6 17.2
2020-Sep-30 06:41 300 0 gusting 6 17.2
2020-Sep-30 06:26 343 2 gusting 5 17.2
2020-Sep-30 06:16 303 3 gusting 5 17.2
2020-Sep-30 06:11 337 1 gusting 3 17.2
2020-Sep-30 06:06 002 0 gusting 2 17.2
2020-Sep-30 05:51 294 0 gusting 5 17.2
2020-Sep-30 05:46 17.2
2020-Sep-30 05:41 338 17.2
2020-Sep-30 05:36 278 17.2
2020-Sep-30 05:31 257 17.2
2020-Sep-30 05:21 154 17.2
2020-Sep-30 05:16 350 17.2
2020-Sep-30 05:11 257 2 gusting 5 17.2
2020-Sep-30 05:06 330 17.2
2020-Sep-30 04:46 17.2
2020-Sep-30 04:26 031 17.2
2020-Sep-30 04:21 311 0 gusting 6 17.2
2020-Sep-30 04:16 346 1 gusting 6 17.2
2020-Sep-30 04:11 322 2 gusting 6 17.2
2020-Sep-30 04:06 278 17.2
2020-Sep-30 03:51 014 17.8
2020-Sep-30 03:46 293 17.8
2020-Sep-30 03:41 259 1 gusting 6 17.8
2020-Sep-30 03:36 221 1 gusting 6 17.8
2020-Sep-30 03:31 354 1 gusting 6 17.8
2020-Sep-30 03:21 302 0 gusting 6 17.8
2020-Sep-30 03:01 101 17.8
2020-Sep-30 02:56 064 1 gusting 3 17.8
2020-Sep-30 02:51 215 0 gusting 3 17.8
2020-Sep-30 02:46 345 17.8
2020-Sep-30 02:41 314 0 gusting 3 17.8
2020-Sep-30 02:31 272 1 gusting 3 17.8
2020-Sep-30 02:26 206 2 gusting 3 17.8
2020-Sep-30 02:21 305 17.8
2020-Sep-30 02:16 206 0 gusting 3 17.8
2020-Sep-30 02:11 232 0 gusting 2 17.8
2020-Sep-30 02:06 261 17.8
2020-Sep-30 01:56 352 17.8
2020-Sep-30 01:51 025 0 gusting 7 17.8
2020-Sep-30 01:46 311 0 gusting 7 17.8
2020-Sep-30 01:36 302 2 gusting 7 17.8
2020-Sep-30 01:31 17.8
2020-Sep-30 01:21 213 17.8
2020-Sep-30 01:11 261 0 gusting 5 17.8
2020-Sep-30 01:01 316 0 gusting 2 17.8
2020-Sep-30 00:51 301 1 gusting 5 17.8
2020-Sep-30 00:26 247 17.8
2020-Sep-30 00:21 267 1 gusting 5 17.8
2020-Sep-30 00:16 305 0 gusting 5 17.8
2020-Sep-30 00:11 012 17.8
2020-Sep-30 00:06 318 3 gusting 5 18.3
2020-Sep-30 00:01 021 1 gusting 1 18.3
2020-Sep-29 23:51 213 18.9
2020-Sep-29 23:46 039 0 gusting 10 18.9
2020-Sep-29 23:36 285 4 gusting 9 19.4
2020-Sep-29 23:31 158 1 gusting 9 19.4
2020-Sep-29 23:11 345 20.0
2020-Sep-29 22:56 051 0 gusting 20 20.6
2020-Sep-29 22:46 003 1 gusting 20 21.7
2020-Sep-29 22:41 108 1 gusting 20 22.2
2020-Sep-29 22:36 296 2 gusting 20 22.8
2020-Sep-29 22:31 258 2 gusting 20 23.9
2020-Sep-29 22:26 301 2 gusting 20 25.6
2020-Sep-29 22:16 262 1 gusting 6 26.7
2020-Sep-29 22:11 189 2 gusting 6 27.2
2020-Sep-29 22:06 224 2 gusting 6 27.2
2020-Sep-29 22:01 193 1 gusting 5 27.2
2020-Sep-29 21:56 265 2 gusting 12 27.2
2020-Sep-29 21:41 223 3 gusting 12 27.2
2020-Sep-29 21:31 233 1 gusting 12 27.2
2020-Sep-29 21:26 301 2 gusting 12 27.8
2020-Sep-29 21:21 245 5 gusting 12 27.8
2020-Sep-29 21:06 259 2 gusting 10 28.3
2020-Sep-29 21:01 247 2 gusting 2 28.3
2020-Sep-29 20:56 271 4 gusting 8 28.3
2020-Sep-29 20:51 248 2 gusting 8 28.3
2020-Sep-29 20:31 355 1 gusting 8 30.0
2020-Sep-29 20:21 257 1 gusting 8 29.4
2020-Sep-29 20:06 223 2 gusting 7 29.4
2020-Sep-29 19:51 317 1 gusting 10 30.0
2020-Sep-29 19:46 246 8 gusting 10 30.0
2020-Sep-29 19:41 286 0 gusting 10 30.0
2020-Sep-29 19:26 270 1 gusting 8 30.0
2020-Sep-29 19:21 272 1 gusting 8 30.0
2020-Sep-29 19:16 259 8 gusting 8 30.0
2020-Sep-29 19:06 248 2 gusting 5 30.0
2020-Sep-29 19:01 180 3 gusting 4 30.0
2020-Sep-29 18:56 206 4 gusting 8 30.0
2020-Sep-29 18:51 049 1 gusting 8 30.0
2020-Sep-29 18:46 101 1 gusting 8 30.6
2020-Sep-29 18:41 258 2 gusting 8 30.6
2020-Sep-29 18:26 209 3 gusting 7 30.6
2020-Sep-29 18:16 245 1 gusting 6 30.6
2020-Sep-29 18:11 276 0 gusting 6 30.6
2020-Sep-29 18:01 259 2 gusting 4 30.6
2020-Sep-29 17:51 230 3 gusting 6 30.6
2020-Sep-29 17:46 237 4 gusting 6 31.1
2020-Sep-29 17:41 240 2 gusting 6 31.1
2020-Sep-29 17:26 230 30.6
2020-Sep-29 17:06 221 2 gusting 6 30.0
2020-Sep-29 17:01 263 2 gusting 2 30.0
2020-Sep-29 16:56 242 2 gusting 8 29.4
2020-Sep-29 16:51 227 2 gusting 8 29.4
2020-Sep-29 16:46 259 2 gusting 8 28.9
2020-Sep-29 16:41 266 2 gusting 8 28.9
2020-Sep-29 16:31 278 3 gusting 8 28.9
2020-Sep-29 16:21 286 2 gusting 8 28.9
2020-Sep-29 16:01 183 0 gusting 0 28.3
2020-Sep-29 15:56 136 1 gusting 5 27.8
2020-Sep-29 15:51 231 2 gusting 5 27.8
2020-Sep-29 15:36 251 2 gusting 4 28.3
2020-Sep-29 15:26 059 0 gusting 4 27.2
2020-Sep-29 15:16 150 26.7
2020-Sep-29 15:11 267 2 gusting 3 26.7
2020-Sep-29 15:01 095 0 gusting 1 26.7